NOAA 16 DEB, 41290

Orbit data source: Space-Track

NOAA 16 DEB, 41290 is space debris in LEO originally from a launch on Thu, 21 Sep 2000 UTC launched from the Air Force Western Test Range (AFWTR). Debris objects in space refer to the collection of defunct objects orbiting the Earth. Examples of debris include non-operational satellites, rocket bodies, and fragments generated from explosions, collisions, or faulty payload assembly.

Loading next visibility...
NOAA 16 DEB details
Identifier
41290, 2000-055GS
Orbit
LEO
Last TLE update10 hours ago
Origin
Flag of USNOAA (US)
ManufacturerUnknown
MissionSpacecraft
Bus & MotorUnknown
MassUnknown
Launch date (UTC)
2000-09-21 (24 years ago)
Launch vehicleUnknown
Launch site
Air Force Western Test Range (AFWTR)
Object type
Payload
Rocket body
Debris
Shape & HBRUnknown
Radar Cross SectionSmall (<0.1 m²)

Expand to show TLE details & history

TLE from 10 hours ago
0 NOAA 16 DEB
1 41290U 00055GS  24347.98714504  .00017311  00000-0  45550-2 0  9998
2 41290  99.0251 175.9753 0021468 339.7751  20.2588 14.48984117466207
Epoch: 2024-12-12T23:41Z
Definitive object data (Epoch: 2024-12-12T23:41:29.331Z)
Latitude-0.00001°
Longitude98.44349°
Altitude717.599 km
Speed7.504 km/s
True Right ascension11h 43m 54s
True Declination0° 00' 00"
Sunlit
Object was in daylight at TLE epoch
Visualization TLE readout
Latitude78.32896°
Longitude49.01164°
Altitude745.737 km
Speed7.487 km/s
Apparent Right ascension20h 32m 33s
Apparent Declination39° 51' 43"
Sunlit
Object is in full shadow
Visualization observer readout
Local Sidereal Time08:30:40
Azimuth359.633° N
Elevation-10.221°
Doppler factor1
Orbital elements
Apogee altitude741.355 km
Perigee altitude710.853 km
Semi-major axis7,104.241 km
Eccentricity0.0021468
Inclination99.0251°
RAAN175.9753°
Arg. of periapsis339.7751°
True anomaly20.3442°
Mean anomaly20.2588°
Eccentric anomaly20.30148°
Mean motion3.62465 °/min
BSTAR0.004555
Orbital period99.32 mins
Loading maneuver chart data...
Loading historical data...
Loading historical data...
Loading historical data...
Loading historical data...
Loading historical data...
Loading historical data...
Loading historical data...

NOAA 16 DEB Visibility forecast

Observer location: undefined°, undefined

Span
Click to sort rows by Start time (UTC) header in descending order
Start Az.
Max El. time (UTC)
Max El. Az.
Max El.
End time (UTC)
End Az.
5 mins2024-12-13 11:27:48.900Z94.399° ESE2024-12-13 11:29:48.900Z66.997° ENE16.387°2024-12-13 11:32:48.900Z26.317° NE
7 mins2024-12-13 13:04:48.900Z189.028° SSW2024-12-13 13:07:48.900Z257.785° W38.72°2024-12-13 13:11:48.900Z333.611° NNW
7 mins2024-12-14 01:08:48.900Z38.748° NE2024-12-14 01:11:48.900Z96.371° ESE33.015°2024-12-14 01:15:48.900Z165.546° S
5 mins2024-12-14 02:47:48.900Z327.51° NNW2024-12-14 02:49:48.900Z295.076° NW21.103°2024-12-14 02:52:48.900Z251.423° W
|